FW1892 Weather Reports


Display with metric or nautical units.
time (UTC)temp
F
wind
direction
speed
MPH
gust
MPH
rain 1hr
in
rain 24hr
in
rain mn
in
humidity
%
barometer
mb
20260904131703 68 315 0.0 0.0 0.00 0.00 0.00 95 1008.5
20260904131527 72 58 2.0 3.0 0.00 0.00 0.00 80 1009.4
20260904131204 68 317 0.0 1.0 0.00 0.00 0.00 95 1008.5
20260904131023 71 333 3.0 3.0 0.00 0.00 0.00 81 1009.3
20260904130703 67 305 0.0 5.0 0.00 0.00 0.00 95 1008.4
20260904130522 71 63 1.0 4.0 0.00 0.00 0.00 82 1009.4
20260904130204 67 305 2.0 5.0 0.00 0.00 0.00 95 1008.4
20260904130017 70 113 1.0 1.0 0.00 0.00 0.00 85 1009.0
20260904125703 66 340 0.0 0.0 0.00 0.00 0.00 95 1008.4
20260904125514 69 78 0.0 1.0 0.00 0.00 0.00 88 1009.3
20260904125203 66 334 0.0 1.0 0.00 0.00 0.00 95 1008.4
20260904125008 69 194 1.0 2.0 0.00 0.00 0.00 89 1009.2
20260904124704 66 279 1.0 3.0 0.00 0.00 0.00 96 1008.4
20260904124504 68 151 0.0 1.0 0.00 0.00 0.00 93 1009.1
20260904124000 67 139 0.0 1.0 0.00 0.00 0.00 95 1009.1
20260904123704 65 301 0.0 3.0 0.00 0.00 0.00 95 1008.4
20260904123454 66 263 1.0 2.0 0.00 0.00 0.00 96 1009.2
20260904123203 65 286 2.0 3.0 0.00 0.00 0.00 95 1008.3
20260904122950 66 74 1.0 2.0 0.00 0.00 0.00 97 1009.1
20260904122703 65 315 2.0 3.0 0.00 0.00 0.00 95 1008.3
20260904122449 66 40 1.0 2.0 0.00 0.00 0.00 97 1009.2
20260904122204 65 312 0.0 0.0 0.00 0.00 0.00 95 1008.4
20260904121943 65 211 1.0 1.0 0.00 0.00 0.00 97 1009.1
20260904121704 65 310 0.0 0.0 0.00 0.00 0.00 95 1008.3
20260904121439 65 87 0.0 2.0 0.00 0.00 0.00 97 1009.1
20260904121204 65 323 0.0 0.0 0.00 0.00 0.00 95 1008.4
20260904120936 65 309 1.0 2.0 0.00 0.00 0.00 97 1009.2
20260904120704 65 331 0.0 0.0 0.00 0.00 0.00 95 1008.4
20260904120431 65 136 0.0 1.0 0.00 0.00 0.00 97 1009.2
20260904120203 65 298 0.0 0.0 0.00 0.00 0.00 95 1008.5
20260904115927 65 128 0.0 1.0 0.00 0.00 0.00 97 1009.0
20260904115704 65 307 0.0 0.0 0.00 0.00 0.00 95 1008.5
20260904115422 64 149 0.0 1.0 0.00 0.00 0.00 97 1009.2
20260904115204 64 351 0.0 0.0 0.00 0.00 0.00 95 1008.5
20260904114922 64 83 0.0 0.0 0.00 0.00 0.00 97 1009.3
20260904114704 64 351 0.0 0.0 0.00 0.00 0.00 95 1008.5
20260904114422 64 105 0.0 1.0 0.00 0.00 0.00 97 1009.4
20260904113918 64 275 1.0 1.0 0.00 0.00 0.00 98 1009.1
20260904113417 64 26 1.0 1.0 0.00 0.00 0.00 98 1009.5
20260904113203 65 290 0.0 0.0 0.00 0.00 0.00 95 1008.5
20260904112916 64 318 1.0 2.0 0.00 0.00 0.00 97 1009.3
20260904112704 65 254 0.0 0.0 0.00 0.00 0.00 95 1008.4
20260904112412 64 178 0.0 1.0 0.00 0.00 0.00 98 1009.2
20260904111908 64 144 0.0 0.0 0.00 0.00 0.00 98 1009.1
20260904111704 65 292 0.0 0.0 0.00 0.00 0.00 95 1008.3
20260904111403 64 101 0.0 0.0 0.00 0.00 0.00 98 1009.1
20260904111204 65 327 0.0 0.0 0.00 0.00 0.00 95 1008.2
20260904110859 64 143 0.0 0.0 0.00 0.00 0.00 98 1009.1
20260904110704 65 327 0.0 0.0 0.00 0.00 0.00 95 1008.2
20260904110357 64 61 0.0 0.0 0.00 0.00 0.00 98 1008.9
20260904110203 65 344 0.0 0.0 0.00 0.00 0.00 95 1008.2
20260904105853 64 298 2.0 3.0 0.00 0.00 0.00 97 1009.0
20260904105703 65 299 0.0 0.0 0.00 0.00 0.00 95 1008.1
20260904105348 64 202 1.0 2.0 0.00 0.00 0.00 98 1008.9
20260904104843 64 343 2.0 2.0 0.00 0.00 0.00 98 1008.8
20260904104704 65 323 0.0 0.0 0.00 0.00 0.00 95 1008.0
20260904104338 64 137 0.0 2.0 0.00 0.00 0.00 98 1008.9
20260904103835 64 259 1.0 1.0 0.00 0.00 0.00 98 1008.7
20260904103703 65 295 0.0 0.0 0.00 0.00 0.00 95 1008.0
20260904103334 64 144 0.0 1.0 0.00 0.00 0.00 98 1008.7
20260904103204 65 295 0.0 0.0 0.00 0.00 0.00 95 1008.0
20260904102831 64 341 0.0 0.0 0.00 0.00 0.00 97 1008.9
20260904102704 65 295 0.0 0.0 0.00 0.00 0.00 95 1008.0
20260904102326 65 265 1.0 2.0 0.00 0.00 0.00 97 1008.9
20260904102203 65 295 0.0 0.0 0.00 0.00 0.00 95 1008.0
20260904101822 65 94 0.0 1.0 0.00 0.00 0.00 98 1008.8
20260904101704 65 335 0.0 0.0 0.00 0.00 0.00 95 1008.0
20260904101318 65 124 0.0 1.0 0.00 0.00 0.00 97 1008.6
20260904101204 65 335 0.0 0.0 0.00 0.00 0.00 95 1007.9
20260904100813 64 66 0.0 1.0 0.00 0.00 0.00 97 1008.8
20260904100704 65 335 0.0 0.0 0.00 0.00 0.00 95 1007.9
20260904100309 65 117 0.0 1.0 0.00 0.00 0.00 97 1008.7
20260904100203 65 334 0.0 0.0 0.00 0.00 0.00 95 1007.9
20260904095804 65 67 0.0 0.0 0.00 0.00 0.00 97 1008.8
20260904095259 65 135 0.0 1.0 0.00 0.00 0.00 97 1008.7
20260904095203 65 30 0.0 0.0 0.00 0.01 0.00 95 1007.9
20260904094754 65 107 0.0 0.0 0.00 0.00 0.00 97 1008.6
20260904094703 65 30 0.0 0.0 0.00 0.02 0.00 95 1007.8
20260904094253 65 18 0.0 2.0 0.00 0.00 0.00 97 1008.5
20260904094203 65 30 0.0 0.0 0.00 0.02 0.00 95 1007.8
20260904093751 65 116 0.0 0.0 0.00 0.00 0.00 97 1008.6
20260904093250 65 116 0.0 2.0 0.00 0.00 0.00 97 1008.7
20260904093204 66 298 0.0 0.0 0.00 0.02 0.00 95 1007.9
20260904092746 65 127 0.0 0.0 0.00 0.00 0.00 97 1008.8
20260904092243 65 98 0.0 2.0 0.00 0.00 0.00 97 1008.6
20260904092204 66 328 0.0 0.0 0.00 0.02 0.00 94 1007.7
20260904091738 65 123 0.0 1.0 0.00 0.00 0.00 97 1008.7
20260904091703 66 343 0.0 0.0 0.00 0.02 0.00 94 1007.8
20260904091233 65 194 1.0 2.0 0.00 0.00 0.00 97 1008.5
20260904090728 65 342 0.0 1.0 0.00 0.00 0.00 97 1008.5
20260904090225 65 334 1.0 1.0 0.00 0.00 0.00 97 1008.6
20260904090204 66 339 0.0 0.0 0.00 0.02 0.00 94 1007.7
20260904085724 66 106 0.0 1.0 0.00 0.00 0.00 97 1008.4
20260904085704 66 343 0.0 0.0 0.00 0.02 0.00 94 1007.7
20260904085219 66 61 1.0 2.0 0.00 0.00 0.00 97 1008.5
20260904085204 66 348 0.0 0.0 0.00 0.02 0.00 94 1007.7
20260904084714 66 29 1.0 2.0 0.00 0.00 0.00 97 1008.5
20260904084704 66 315 0.0 0.0 0.00 0.02 0.00 94 1007.8
20260904084211 66 143 0.0 0.0 0.00 0.00 0.00 97 1008.6
20260904084204 67 293 0.0 0.0 0.00 0.02 0.00 94 1007.9
20260904083707 66 129 0.0 0.0 0.00 0.00 0.00 97 1008.9
20260904083704 67 293 0.0 0.0 0.00 0.02 0.00 94 1008.0
20260904083203 66 176 1.0 2.0 0.00 0.00 0.00 97 1008.8
20260904082704 67 248 0.0 0.0 0.00 0.02 0.00 94 1007.9
20260904082702 66 146 0.0 0.0 0.00 0.00 0.00 97 1008.6
20260904082203 67 248 0.0 0.0 0.00 0.02 0.00 94 1007.8
20260904082158 66 138 0.0 1.0 0.00 0.00 0.00 97 1008.6
20260904081704 67 249 0.0 0.0 0.00 0.02 0.00 94 1007.9
20260904081653 66 159 0.0 1.0 0.00 0.00 0.00 97 1008.7
20260904081204 67 247 0.0 0.0 0.00 0.02 0.00 94 1007.9
20260904081148 66 141 0.0 0.0 0.00 0.00 0.00 97 1008.8
20260904080644 66 144 0.0 0.0 0.00 0.00 0.00 97 1008.8
20260904080202 67 243 0.0 0.0 0.00 0.02 0.00 94 1008.0
20260904080140 67 130 0.0 0.0 0.00 0.00 0.00 97 1008.8
20260904075702 67 240 0.0 0.0 0.00 0.04 0.00 94 1008.0
20260904075636 67 79 0.0 0.0 0.00 0.00 0.00 97 1008.7
20260904075202 67 227 0.0 0.0 0.00 0.07 0.00 94 1008.0
20260904075131 67 159 0.0 0.0 0.00 0.00 0.00 97 1008.9
20260904074702 67 172 0.0 0.0 0.00 0.07 0.00 94 1008.0
20260904074630 67 152 0.0 0.0 0.00 0.00 0.00 97 1008.7
20260904074125 67 134 0.0 0.0 0.00 0.00 0.00 97 1008.8
20260904073702 67 159 0.0 0.0 0.00 0.07 0.00 94 1008.0
20260904073620 67 130 0.0 0.0 0.00 0.00 0.00 97 1008.7
20260904073203 67 159 0.0 0.0 0.00 0.07 0.00 94 1008.0
20260904073116 67 129 0.0 0.0 0.00 0.00 0.00 97 1009.0
20260904072702 67 159 0.0 0.0 0.00 0.07 0.00 94 1008.0
20260904072612 67 134 0.0 0.0 0.00 0.00 0.00 97 1008.8
20260904072202 67 159 0.0 0.0 0.00 0.07 0.00 94 1008.1
20260904072106 67 132 0.0 0.0 0.00 0.00 0.00 97 1009.0
20260904071702 67 159 0.0 0.0 0.00 0.07 0.00 94 1008.1
20260904071602 67 136 0.0 0.0 0.00 0.00 0.00 97 1009.0
20260904071202 67 159 0.0 0.0 0.00 0.07 0.00 94 1008.1
20260904071057 67 139 0.0 0.0 0.00 0.00 0.00 97 1009.2
20260904070556 67 169 0.0 0.0 0.00 0.00 0.00 97 1008.9
20260904070202 67 137 0.0 0.0 0.00 0.07 0.00 94 1008.1
20260904070051 67 144 0.0 0.0 0.00 0.00 0.00 97 1008.9
20260904065702 67 137 0.0 0.0 0.00 0.07 0.00 94 1008.1
20260904065546 67 133 0.0 0.0 0.00 0.00 0.00 97 1008.8
20260904065202 67 137 0.0 0.0 0.00 0.07 0.00 94 1008.2
20260904065042 66 131 0.0 0.0 0.00 0.00 0.00 97 1009.0
20260904064702 67 137 0.0 0.0 0.00 0.07 0.00 94 1008.3
20260904064533 66 124 0.0 1.0 0.00 0.00 0.00 97 1009.1
20260904064032 67 127 0.0 0.0 0.00 0.00 0.00 97 1009.2
20260904063703 67 137 0.0 0.0 0.00 0.07 0.00 94 1008.4
20260904063529 67 121 0.0 0.0 0.00 0.00 0.00 97 1009.2
20260904063202 67 137 0.0 0.0 0.00 0.07 0.00 94 1008.3
20260904063029 67 103 0.0 0.0 0.00 0.00 0.00 97 1009.2
20260904062702 67 137 0.0 0.0 0.00 0.07 0.00 94 1008.3
20260904062526 67 108 0.0 0.0 0.00 0.00 0.00 96 1009.1
20260904062021 67 125 0.0 0.0 0.00 0.00 0.00 96 1009.3
20260904061702 67 137 0.0 0.0 0.00 0.07 0.00 93 1008.5
20260904061517 67 123 0.0 0.0 0.00 0.00 0.00 96 1009.3
20260904061202 67 137 0.0 0.0 0.00 0.07 0.00 93 1008.6
20260904061013 67 126 0.0 0.0 0.00 0.00 0.00 96 1009.3
20260904060702 67 137 0.0 0.0 0.00 0.07 0.00 94 1008.7
20260904060509 67 132 0.0 0.0 0.00 0.00 0.00 96 1009.4
20260904060004 67 123 0.0 0.0 0.00 0.00 0.00 96 1009.5
20260904055702 67 137 0.0 0.0 0.00 0.07 0.00 94 1008.8
20260904055500 67 102 0.0 0.0 0.00 0.00 0.00 96 1009.8
20260904054955 67 106 0.0 0.0 0.00 0.00 0.00 96 1009.8
20260904054450 67 85 0.0 1.0 0.00 0.00 0.00 96 1009.7
20260904054202 67 137 0.0 0.0 0.00 0.07 0.00 93 1009.0
20260904053946 67 100 0.0 0.0 0.00 0.00 0.00 96 1009.8
20260904053702 67 138 0.0 0.0 0.00 0.07 0.00 93 1009.0
20260904053445 67 120 0.0 0.0 0.00 0.00 0.00 96 1009.9
20260904053202 67 134 0.0 0.0 0.00 0.07 0.00 93 1009.1
20260904052941 67 144 0.0 2.0 0.00 0.00 0.00 96 1009.8
20260904052437 67 134 0.0 0.0 0.00 0.00 0.00 96 1009.9
20260904051933 67 135 0.0 0.0 0.00 0.00 0.00 96 1010.2
20260904051430 67 142 0.0 0.0 0.00 0.00 0.00 95 1010.2
20260904051203 68 180 0.0 0.0 0.00 0.07 0.00 93 1009.3
20260904050924 67 195 1.0 2.0 0.00 0.00 0.00 95 1010.0
20260904050702 68 180 0.0 0.0 0.00 0.07 0.00 93 1009.3
20260904050420 67 137 0.0 0.0 0.00 0.00 0.00 95 1010.0
20260904045920 67 144 0.0 0.0 0.00 0.00 0.00 95 1010.0
20260904045702 68 180 0.0 0.0 0.00 0.07 0.00 93 1009.2
20260904045415 67 168 0.0 0.0 0.00 0.00 0.00 95 1009.9
20260904045202 68 171 0.0 0.0 0.00 0.07 0.00 93 1009.2
20260904044914 67 143 0.0 0.0 0.00 0.00 0.00 95 1010.0
20260904044702 68 171 0.0 0.0 0.00 0.07 0.00 93 1009.2
20260904044411 67 141 0.0 0.0 0.00 0.00 0.00 95 1009.9
20260904043907 67 152 1.0 1.0 0.00 0.00 0.00 95 1009.8
20260904043703 68 184 0.0 0.0 0.00 0.07 0.00 93 1009.2
20260904043403 67 209 0.0 2.0 0.00 0.00 0.00 95 1009.9
20260904043202 68 154 0.0 0.0 0.00 0.07 0.00 93 1009.2
20260904042858 68 112 0.0 1.0 0.00 0.00 0.00 95 1010.1
20260904042703 68 159 0.0 0.0 0.00 0.07 0.00 93 1009.3
20260904042354 68 138 0.0 1.0 0.00 0.00 0.00 95 1010.1
20260904041849 67 167 0.0 1.0 0.00 0.00 0.00 95 1010.3
20260904041703 68 143 0.0 0.0 0.00 0.07 0.00 93 1009.4
20260904041345 67 137 0.0 1.0 0.00 0.00 0.00 95 1010.0
20260904041203 68 136 0.0 0.0 0.00 0.07 0.00 92 1009.5
20260904040841 67 126 0.0 0.0 0.00 0.00 0.00 95 1010.2
20260904040702 68 54 0.0 0.0 0.00 0.07 0.00 92 1009.5
20260904040336 67 126 0.0 0.0 0.00 0.00 0.00 95 1010.1
20260904040202 68 54 0.0 0.0 0.00 0.07 0.00 92 1009.5
20260904035833 67 126 0.0 0.0 0.00 0.09 0.09 95 1010.2
20260904035328 67 166 0.0 0.0 0.00 0.09 0.09 95 1010.3
20260904035202 68 54 0.0 0.0 0.00 0.07 0.07 92 1009.6
20260904034827 67 166 0.0 0.0 0.00 0.09 0.09 95 1010.3
20260904034322 67 166 0.0 0.0 0.00 0.09 0.09 95 1010.7
20260904034202 68 54 0.0 0.0 0.00 0.07 0.07 92 1009.7
20260904033818 67 166 0.0 0.0 0.00 0.09 0.09 95 1010.4
20260904033703 68 54 0.0 0.0 0.00 0.07 0.07 92 1009.7
20260904033314 67 166 0.0 0.0 0.00 0.09 0.09 95 1010.5
20260904033202 68 54 0.0 0.0 0.00 0.07 0.07 92 1009.7
20260904032811 67 166 0.0 0.0 0.00 0.09 0.09 95 1010.6
20260904032702 68 53 0.0 0.0 0.00 0.07 0.07 92 1009.7
20260904032310 67 168 0.0 0.0 0.00 0.09 0.09 94 1010.3
20260904032202 68 51 0.0 0.0 0.00 0.07 0.07 92 1009.6
20260904031804 67 168 0.0 0.0 0.00 0.09 0.09 94 1010.5
20260904031702 68 51 0.0 0.0 0.00 0.07 0.07 92 1009.7
20260904031300 67 168 0.0 0.0 0.00 0.09 0.09 94 1010.6
20260904031202 68 51 0.0 0.0 0.00 0.07 0.07 92 1009.8
20260904030756 67 168 0.0 0.0 0.00 0.09 0.09 94 1010.6
20260904030703 68 51 0.0 0.0 0.00 0.07 0.07 92 1009.9
20260904030251 67 195 0.0 2.0 0.00 0.09 0.09 94 1010.7
20260904030202 68 51 0.0 0.0 0.00 0.07 0.07 91 1009.9
20260904025747 67 100 0.0 0.0 0.00 0.09 0.09 94 1010.8
20260904025242 67 200 0.0 0.0 0.00 0.09 0.09 94 1010.5
20260904025202 68 130 0.0 0.0 0.00 0.07 0.07 91 1009.8
20260904024737 68 112 2.0 2.0 0.00 0.09 0.09 94 1010.7
20260904024233 68 161 0.0 2.0 0.00 0.09 0.09 94 1010.8
20260904023729 68 123 0.0 1.0 0.00 0.09 0.09 93 1010.3
20260904023702 68 83 0.0 0.0 0.00 0.07 0.07 91 1009.7
20260904023225 68 142 0.0 1.0 0.00 0.09 0.09 93 1010.7
20260904022724 68 161 0.0 1.0 0.00 0.09 0.09 93 1010.7
20260904022702 69 117 0.0 0.0 0.00 0.07 0.07 91 1009.9
20260904022222 68 107 0.0 1.0 0.00 0.09 0.09 93 1010.8
20260904021717 68 82 0.0 0.0 0.00 0.09 0.09 93 1010.7
20260904021703 69 118 0.0 0.0 0.00 0.07 0.07 91 1009.9
20260904021212 68 124 0.0 0.0 0.00 0.09 0.09 93 1010.7
20260904021202 69 120 0.0 0.0 0.00 0.07 0.07 91 1009.9
20260904020708 68 143 0.0 0.0 0.00 0.09 0.09 93 1010.8
20260904020702 69 125 0.0 0.0 0.00 0.07 0.07 91 1010.0
20260904020207 68 109 0.0 2.0 0.00 0.09 0.09 93 1011.0
20260904020202 69 71 0.0 0.0 0.00 0.07 0.07 91 1010.2
20260904015706 68 109 0.0 0.0 0.00 0.09 0.09 93 1010.9
20260904015201 68 85 0.0 0.0 0.00 0.09 0.09 93 1011.1
20260904014702 69 115 0.0 0.0 0.00 0.07 0.07 90 1010.1
20260904014659 68 128 0.0 0.0 0.00 0.09 0.09 93 1011.0
20260904014154 68 115 0.0 0.0 0.00 0.09 0.09 93 1010.9
20260904013651 68 128 0.0 0.0 0.00 0.09 0.09 93 1010.9
20260904013202 69 117 0.0 0.0 0.00 0.07 0.07 89 1010.1
20260904013147 68 116 0.0 0.0 0.00 0.09 0.09 93 1010.8
20260904012702 69 117 0.0 0.0 0.00 0.07 0.07 89 1010.1
20260904012642 68 124 0.0 0.0 0.00 0.09 0.09 93 1010.7
20260904012203 69 117 0.0 0.0 0.00 0.07 0.07 89 1010.0
20260904012141 68 92 0.0 0.0 0.00 0.09 0.09 93 1010.8
20260904011702 69 117 0.0 0.0 0.00 0.07 0.07 89 1010.1
20260904011640 68 155 0.0 0.0 0.00 0.09 0.09 93 1011.0
20260904011136 68 154 0.0 0.0 0.00 0.09 0.09 93 1010.9
20260904010702 69 117 0.0 0.0 0.00 0.07 0.07 88 1010.1
20260904010632 68 132 0.0 0.0 0.00 0.09 0.09 93 1011.0
20260904010203 70 117 0.0 0.0 0.00 0.07 0.07 88 1010.1
20260904010128 68 140 0.0 0.0 0.00 0.09 0.09 93 1011.1
20260904005702 70 115 0.0 0.0 0.00 0.07 0.07 88 1010.0
20260904005623 68 138 0.0 0.0 0.00 0.09 0.09 93 1011.0
20260904005119 68 110 0.0 0.0 0.00 0.09 0.09 93 1010.8
20260904004703 70 115 0.0 0.0 0.00 0.07 0.07 88 1009.7
20260904004614 68 109 0.0 0.0 0.00 0.09 0.09 92 1010.5
20260904004114 68 120 0.0 0.0 0.00 0.09 0.09 92 1010.7
20260904003702 70 115 0.0 0.0 0.00 0.07 0.07 87 1009.8
20260904003610 69 143 0.0 0.0 0.00 0.09 0.09 92 1010.8
20260904003203 70 115 0.0 0.0 0.00 0.07 0.07 87 1009.8
20260904003106 69 119 0.0 0.0 0.00 0.09 0.09 92 1010.7
20260904002702 70 115 0.0 0.0 0.00 0.07 0.07 87 1009.8
20260904002601 69 123 0.0 0.0 0.00 0.09 0.09 92 1010.6
20260904002203 70 115 0.0 0.0 0.00 0.07 0.07 87 1009.7
20260904002056 69 116 0.0 0.0 0.00 0.09 0.09 91 1010.4
20260904001552 69 129 0.0 0.0 0.00 0.09 0.09 91 1010.5
20260904001202 71 115 0.0 0.0 0.00 0.07 0.07 86 1009.6
20260904001050 69 121 0.0 0.0 0.00 0.09 0.09 91 1010.3
20260904000702 71 115 0.0 0.0 0.00 0.07 0.07 86 1009.4
20260904000545 69 117 0.0 0.0 0.00 0.09 0.09 91 1010.2
20260904000203 71 115 0.0 0.0 0.00 0.07 0.07 85 1009.3
20260904000041 69 84 0.0 0.0 0.00 0.09 0.09 91 1010.1
20260903235703 71 115 0.0 0.0 0.00 0.07 0.07 85 1009.3
20260903235536 69 117 0.0 0.0 0.00 0.09 0.09 91 1010.3
20260903235202 71 115 0.0 0.0 0.00 0.07 0.07 84 1009.4
20260903235032 69 109 0.0 0.0 0.00 0.09 0.09 90 1010.3
20260903234703 72 115 0.0 0.0 0.00 0.07 0.07 84 1009.5
20260903234527 69 111 0.0 0.0 0.00 0.09 0.09 90 1010.2
20260903234202 72 115 0.0 0.0 0.00 0.07 0.07 84 1009.4
20260903234022 69 144 0.0 0.0 0.00 0.09 0.09 90 1010.2
20260903233703 72 96 0.0 0.0 0.00 0.07 0.07 83 1009.2
20260903233518 69 109 0.0 0.0 0.00 0.09 0.09 89 1010.1
20260903233202 72 96 0.0 0.0 0.00 0.07 0.07 83 1009.2
20260903233014 69 128 0.0 0.0 0.00 0.09 0.09 89 1009.9
20260903232702 73 96 0.0 0.0 0.00 0.07 0.07 82 1009.2
20260903232509 70 141 0.0 0.0 0.00 0.09 0.09 88 1010.1
20260903232203 73 96 0.0 0.0 0.00 0.07 0.07 82 1009.3
20260903232009 70 146 0.0 0.0 0.00 0.09 0.09 87 1009.9
20260903231702 73 96 0.0 0.0 0.00 0.07 0.07 82 1009.2
20260903231503 71 147 0.0 0.0 0.00 0.09 0.09 86 1010.1
20260903231202 73 96 0.0 0.0 0.00 0.07 0.07 81 1009.3
20260903230957 71 203 0.0 0.0 0.00 0.09 0.09 85 1010.2
20260903230702 74 96 0.0 0.0 0.00 0.07 0.07 81 1009.4
20260903230454 72 125 0.0 0.0 0.00 0.09 0.09 84 1010.2
20260903230203 74 96 0.0 0.0 0.00 0.07 0.07 81 1009.4
20260903225950 72 120 0.0 0.0 0.00 0.09 0.09 83 1010.3
20260903225702 74 96 0.0 0.0 0.00 0.07 0.07 80 1009.5
20260903225445 73 143 0.0 0.0 0.00 0.09 0.09 82 1010.4
20260903225202 74 96 0.0 0.0 0.00 0.07 0.07 80 1009.4
20260903224942 73 142 0.0 0.0 0.00 0.09 0.09 82 1010.4
20260903224703 75 96 0.0 0.0 0.00 0.07 0.07 80 1009.3
20260903224437 73 140 0.0 0.0 0.00 0.09 0.09 81 1010.0
20260903224203 75 96 0.0 0.0 0.00 0.07 0.07 80 1009.3
20260903223933 73 135 0.0 1.0 0.00 0.09 0.09 80 1010.2
20260903223703 75 91 0.0 0.0 0.00 0.07 0.07 80 1009.2
20260903223432 74 120 0.0 2.0 0.00 0.09 0.09 80 1010.1
20260903223203 75 136 0.0 0.0 0.00 0.07 0.07 79 1009.4
20260903222931 74 97 0.0 1.0 0.00 0.09 0.09 79 1010.3
20260903222702 75 109 0.0 1.0 0.00 0.07 0.07 79 1009.6
20260903222427 75 143 0.0 1.0 0.00 0.09 0.09 79 1010.6
20260903222203 76 91 0.0 0.0 0.00 0.07 0.07 79 1009.7
20260903221926 75 86 1.0 2.0 0.00 0.09 0.09 77 1010.7
20260903221703 76 94 0.0 0.0 0.00 0.07 0.07 79 1009.8
20260903221425 75 114 0.0 1.0 0.00 0.09 0.09 77 1010.6
20260903221203 76 67 0.0 0.0 0.00 0.07 0.07 79 1009.7
20260903220923 76 184 1.0 2.0 0.00 0.09 0.09 76 1010.3
20260903220703 76 171 0.0 0.0 0.00 0.07 0.07 79 1009.7
20260903220418 76 194 1.0 2.0 0.00 0.09 0.09 75 1010.5
20260903220202 76 129 0.0 0.0 0.00 0.07 0.07 79 1009.7
20260903215916 77 106 0.0 2.0 0.00 0.09 0.09 74 1010.4
20260903215702 76 111 0.0 0.0 0.00 0.07 0.07 79 1009.6
20260903215413 77 104 2.0 3.0 0.00 0.09 0.09 74 1010.5
20260903215202 76 315 0.0 0.0 0.00 0.07 0.07 79 1009.8
20260903214911 76 155 0.0 1.0 0.00 0.09 0.09 76 1010.5
20260903214703 76 315 0.0 0.0 0.00 0.07 0.07 79 1009.8
20260903214407 76 152 0.0 1.0 0.00 0.09 0.09 76 1010.6
20260903214202 76 315 0.0 0.0 0.00 0.07 0.07 78 1009.8
20260903213906 76 161 1.0 1.0 0.00 0.09 0.09 76 1010.7
20260903213703 76 315 0.0 0.0 0.00 0.07 0.07 78 1009.8
20260903213401 75 166 0.0 1.0 0.00 0.09 0.09 76 1010.4
20260903213202 76 315 0.0 0.0 0.00 0.07 0.07 77 1009.7
20260903212857 75 314 2.0 2.0 0.00 0.09 0.09 76 1010.7
20260903212702 76 317 0.0 0.0 0.00 0.07 0.07 77 1009.7
20260903212353 75 310 1.0 2.0 0.00 0.09 0.09 75 1010.4
20260903212202 77 319 0.0 0.0 0.00 0.07 0.07 76 1009.7
20260903211852 75 177 1.0 1.0 0.00 0.09 0.09 76 1010.6
20260903211702 77 319 0.0 0.0 0.00 0.07 0.07 76 1009.8
20260903211348 75 308 1.0 1.0 0.00 0.09 0.09 75 1010.5
20260903211202 77 194 0.0 0.0 0.00 0.07 0.07 75 1009.7
20260903210845 77 175 2.0 2.0 0.00 0.09 0.09 73 1010.6
20260903210702 77 190 0.0 0.0 0.00 0.07 0.07 76 1009.7
20260903210344 77 178 1.0 2.0 0.00 0.09 0.09 74 1010.4
20260903210202 77 190 0.0 0.0 0.00 0.07 0.07 76 1009.7
20260903205839 77 177 1.0 1.0 0.00 0.09 0.09 72 1010.5
20260903205702 77 208 0.0 0.0 0.00 0.07 0.07 77 1009.7
20260903205338 77 167 2.0 2.0 0.00 0.09 0.09 72 1010.5
20260903205203 77 200 0.0 0.0 0.00 0.07 0.07 77 1009.7
20260903204834 77 173 1.0 2.0 0.00 0.09 0.09 72 1010.7
20260903204702 76 205 0.0 0.0 0.00 0.07 0.07 77 1009.8
20260903204330 77 167 1.0 2.0 0.00 0.09 0.09 71 1010.7
20260903203825 77 187 0.0 1.0 0.00 0.09 0.09 73 1010.8
20260903203702 76 246 0.0 0.0 0.00 0.07 0.07 77 1010.0
20260903203321 77 173 1.0 3.0 0.00 0.09 0.09 72 1010.7
20260903203202 76 240 0.0 0.0 0.00 0.07 0.07 78 1010.0
20260903202820 77 235 1.0 2.0 0.00 0.09 0.09 72 1010.7
20260903202703 76 263 0.0 0.0 0.00 0.07 0.07 77 1010.0
20260903202317 76 270 1.0 2.0 0.00 0.09 0.09 73 1010.6
20260903202202 76 294 0.0 0.0 0.00 0.07 0.07 78 1009.9
20260903201815 77 213 2.0 2.0 0.00 0.09 0.09 71 1010.8
20260903201702 75 315 0.0 0.0 0.00 0.07 0.07 79 1010.0
20260903201311 76 287 1.0 2.0 0.00 0.09 0.09 73 1011.0
20260903201203 75 317 0.0 0.0 0.00 0.07 0.07 79 1010.1
20260903200809 75 131 0.0 0.0 0.00 0.09 0.09 75 1011.0
20260903200703 75 178 0.0 0.0 0.00 0.07 0.07 78 1010.2
20260903200305 75 198 2.0 2.0 0.00 0.09 0.09 75 1010.8
20260903200202 75 176 0.0 0.0 0.00 0.07 0.07 78 1010.1
20260903195800 75 146 0.0 1.0 0.00 0.09 0.09 75 1010.9
20260903195702 75 235 0.0 0.0 0.00 0.07 0.07 78 1010.1
20260903195256 75 209 1.0 1.0 0.00 0.09 0.09 75 1011.2
20260903195203 75 232 0.0 0.0 0.00 0.07 0.07 78 1010.3
20260903194751 74 210 2.0 2.0 0.00 0.09 0.09 77 1011.1
20260903194702 75 244 0.0 0.0 0.00 0.07 0.07 78 1010.4
20260903194247 75 90 0.0 1.0 0.00 0.09 0.09 75 1011.1
20260903194202 75 276 0.0 0.0 0.00 0.07 0.07 78 1010.3
20260903193742 75 280 1.0 3.0 0.00 0.09 0.09 74 1011.2
20260903193238 76 247 1.0 2.0 0.00 0.09 0.09 73 1011.4
20260903193203 75 93 0.0 0.0 0.00 0.07 0.07 79 1010.5
20260903192734 77 147 1.0 2.0 0.00 0.09 0.09 72 1011.5
20260903192229 78 165 0.0 2.0 0.00 0.09 0.09 70 1011.4
20260903192203 75 78 0.0 0.0 0.00 0.07 0.07 81 1010.7
20260903191725 76 245 2.0 3.0 0.00 0.09 0.09 73 1011.5
20260903191221 75 156 0.0 1.0 0.00 0.09 0.09 75 1011.6
20260903191202 73 97 0.0 0.0 0.00 0.07 0.07 82 1010.7
20260903190715 74 100 0.0 2.0 0.00 0.09 0.09 77 1011.6
20260903190215 74 144 2.0 2.0 0.00 0.09 0.09 76 1011.6
20260903190202 73 129 0.0 0.0 0.00 0.07 0.07 83 1010.7
20260903185710 75 141 4.0 4.0 0.00 0.09 0.09 74 1011.4
20260903185210 74 177 1.0 2.0 0.00 0.09 0.09 75 1011.5
20260903184707 73 86 1.0 2.0 0.00 0.09 0.09 77 1011.5
20260903184702 71 14 0.0 0.0 0.00 0.07 0.07 85 1010.8
20260903184202 71 325 0.0 0.0 0.00 0.07 0.07 87 1010.9
20260903183703 70 216 0.0 0.0 0.00 0.07 0.07 87 1011.0
20260903183701 72 225 2.0 2.0 0.00 0.09 0.09 80 1011.5
20260903183203 70 199 0.0 0.0 0.00 0.07 0.07 87 1011.0
20260903183156 72 174 0.0 3.0 0.00 0.09 0.09 79 1011.7
20260903182655 71 132 1.0 1.0 0.00 0.09 0.09 81 1011.8
20260903182203 69 335 0.0 0.0 0.00 0.07 0.07 87 1011.1
20260903182151 70 109 0.0 0.0 0.00 0.09 0.09 83 1012.0
20260903181703 69 335 0.0 0.0 0.00 0.07 0.07 88 1011.3
20260903181649 69 341 2.0 3.0 0.00 0.09 0.09 83 1012.1
20260903181202 69 138 0.0 0.0 0.00 0.07 0.07 88 1011.2
20260903181144 69 151 0.0 1.0 0.00 0.09 0.09 85 1011.9
20260903180702 69 138 0.0 0.0 0.00 0.07 0.07 88 1011.4
20260903180640 69 137 2.0 3.0 0.00 0.09 0.09 84 1012.1
20260903180202 69 153 0.0 0.0 0.00 0.07 0.07 88 1011.4
20260903180140 69 129 1.0 2.0 0.00 0.09 0.09 83 1012.3
20260903175703 68 341 0.0 0.0 0.00 0.07 0.07 88 1011.4
20260903175639 69 113 0.0 1.0 0.00 0.09 0.09 83 1012.1
20260903175138 69 138 1.0 3.0 0.00 0.09 0.09 84 1012.4
20260903174702 68 305 0.0 0.0 0.00 0.07 0.07 89 1011.6
20260903174633 69 222 1.0 2.0 0.00 0.09 0.09 84 1012.3
20260903174203 68 316 0.0 0.0 0.00 0.07 0.07 89 1011.6
20260903174128 69 67 1.0 2.0 0.00 0.09 0.09 84 1012.4
20260903173703 68 351 0.0 0.0 0.00 0.07 0.07 89 1011.7
20260903173623 68 189 1.0 1.0 0.00 0.09 0.09 84 1012.6
20260903173120 68 322 2.0 3.0 0.00 0.09 0.09 84 1012.5
20260903172702 68 15 0.0 7.0 0.00 0.07 0.07 90 1011.8
20260903172619 68 141 0.0 3.0 0.00 0.09 0.09 85 1012.3
20260903172203 67 298 0.0 2.0 0.00 0.07 0.07 90 1011.8
20260903172115 68 213 1.0 1.0 0.00 0.09 0.09 86 1012.5
20260903171703 67 336 2.0 6.0 0.00 0.07 0.07 90 1011.7
20260903171614 68 262 2.0 4.0 0.00 0.09 0.09 86 1012.4
20260903171203 67 324 0.0 0.0 0.00 0.07 0.07 91 1011.7
20260903171110 68 111 0.0 1.0 0.00 0.09 0.09 86 1012.4
20260903170703 67 287 2.0 6.0 0.00 0.07 0.07 91 1011.7
20260903170609 68 210 3.0 4.0 0.00 0.09 0.09 86 1012.5
20260903170202 67 217 0.0 0.0 0.00 0.07 0.07 91 1011.6
20260903170105 67 140 0.0 0.0 0.00 0.09 0.09 87 1012.5
20260903165702 66 294 0.0 0.0 0.00 0.07 0.07 91 1011.6
20260903165602 67 139 0.0 1.0 0.00 0.09 0.09 87 1012.5
20260903165203 66 92 0.0 2.0 0.00 0.07 0.07 91 1011.7
20260903165058 67 131 0.0 1.0 0.00 0.09 0.09 87 1012.5
20260903164702 66 23 0.0 3.0 0.00 0.07 0.07 92 1011.8
20260903164552 67 104 0.0 1.0 0.00 0.09 0.09 87 1012.5
20260903164202 66 334 0.0 7.0 0.00 0.07 0.07 92 1011.8
20260903164048 67 289 3.0 4.0 0.00 0.09 0.09 87 1012.5
20260903163702 66 340 1.0 5.0 0.00 0.07 0.07 92 1011.9
20260903163542 67 237 2.0 3.0 0.00 0.09 0.09 87 1012.5
20260903163202 66 5 0.0 0.0 0.00 0.07 0.07 92 1011.9
20260903163038 67 121 0.0 1.0 0.00 0.09 0.09 88 1012.5
20260903162535 67 283 1.0 2.0 0.00 0.09 0.09 88 1012.4
20260903162203 66 40 0.0 3.0 0.00 0.07 0.07 92 1011.9
20260903162030 67 133 0.0 2.0 0.00 0.09 0.09 88 1012.5
20260903161702 66 84 0.0 0.0 0.00 0.07 0.07 92 1011.8
20260903161525 66 136 0.0 3.0 0.00 0.09 0.09 89 1012.5
20260903161016 66 218 0.0 2.0 0.00 0.09 0.09 89 1012.5
20260903160703 65 329 0.0 0.0 0.00 0.07 0.07 93 1011.9
20260903160515 66 74 0.0 1.0 0.00 0.09 0.09 89 1012.5
20260903160202 65 307 0.0 3.0 0.00 0.07 0.07 93 1011.9
20260903160010 66 269 0.0 3.0 0.00 0.09 0.09 89 1012.6
20260903155702 65 51 2.0 5.0 0.00 0.07 0.07 93 1011.9
20260903155508 65 298 2.0 2.0 0.00 0.09 0.09 90 1012.6
20260903155202 65 327 1.0 5.0 0.00 0.07 0.07 93 1011.9
20260903155004 65 73 1.0 4.0 0.00 0.09 0.09 89 1012.5
20260903154702 65 342 0.0 0.0 0.00 0.07 0.07 93 1012.1
20260903154459 66 238 2.0 3.0 0.00 0.09 0.09 89 1012.8
20260903154202 65 346 0.0 0.0 0.00 0.07 0.07 93 1012.1
20260903153955 66 132 0.0 1.0 0.00 0.09 0.09 89 1012.7
20260903153702 65 27 0.0 0.0 0.00 0.07 0.07 93 1012.1
20260903153451 66 128 0.0 2.0 0.00 0.09 0.09 90 1012.8
20260903153203 65 111 0.0 0.0 0.00 0.07 0.07 93 1012.4
20260903152947 65 136 0.0 0.0 0.00 0.09 0.09 91 1013.1
20260903152702 64 85 0.0 0.0 0.00 0.07 0.07 93 1012.4
20260903152442 65 143 0.0 1.0 0.00 0.09 0.09 91 1013.0
20260903152203 64 45 0.0 0.0 0.00 0.07 0.07 93 1012.4
20260903151938 65 126 0.0 2.0 0.00 0.09 0.09 91 1013.2
20260903151703 64 44 0.0 0.0 0.00 0.07 0.07 93 1012.6
20260903151432 64 62 0.0 1.0 0.00 0.09 0.09 91 1013.5
20260903151203 64 319 0.0 0.0 0.00 0.07 0.07 93 1012.7
20260903150927 64 106 1.0 2.0 0.00 0.09 0.09 91 1013.2
20260903150702 64 319 0.0 0.0 0.00 0.07 0.07 93 1012.6
20260903150422 65 216 1.0 1.0 0.00 0.09 0.09 91 1013.4
20260903150202 64 332 0.0 0.0 0.00 0.07 0.07 93 1012.6
20260903145917 65 235 1.0 2.0 0.00 0.09 0.09 90 1013.2
20260903145703 64 332 0.0 0.0 0.00 0.07 0.07 93 1012.6
20260903145413 65 99 0.0 0.0 0.00 0.09 0.09 90 1013.1
20260903145202 64 332 0.0 0.0 0.00 0.07 0.07 93 1012.6
20260903144912 65 28 0.0 2.0 0.00 0.09 0.09 89 1013.2
20260903144702 64 332 0.0 0.0 0.00 0.07 0.07 93 1012.7
20260903144406 65 134 0.0 1.0 0.00 0.09 0.09 90 1013.3
20260903144202 64 330 0.0 0.0 0.00 0.07 0.07 94 1012.6
20260903143902 65 74 0.0 1.0 0.00 0.09 0.09 90 1013.1
20260903143359 65 132 0.0 1.0 0.00 0.09 0.09 90 1013.1
20260903143203 64 121 0.0 0.0 0.00 0.07 0.07 94 1012.5
20260903142859 65 74 0.0 0.0 0.00 0.09 0.09 90 1013.4
20260903142702 64 122 0.0 0.0 0.00 0.07 0.07 94 1012.6
20260903142355 64 133 0.0 0.0 0.00 0.09 0.09 90 1013.3
20260903142203 64 123 0.0 0.0 0.00 0.07 0.07 94 1012.8
20260903141851 64 147 0.0 0.0 0.00 0.09 0.09 90 1013.4
20260903141703 64 123 0.0 0.0 0.00 0.07 0.07 94 1012.9
20260903141346 65 134 0.0 0.0 0.00 0.09 0.09 90 1013.6
20260903140841 65 139 0.0 0.0 0.00 0.09 0.09 90 1013.6
20260903140702 64 123 0.0 0.0 0.00 0.07 0.07 94 1013.0
20260903140336 64 124 0.0 0.0 0.00 0.09 0.09 91 1013.7
20260903140202 64 121 0.0 0.0 0.00 0.07 0.07 94 1013.0
20260903135832 64 133 0.0 0.0 0.00 0.09 0.09 91 1013.8
20260903135702 63 122 0.0 0.0 0.00 0.07 0.07 94 1013.0
20260903135328 64 110 0.0 0.0 0.00 0.09 0.09 92 1013.8
20260903135203 63 122 0.0 0.0 0.00 0.07 0.07 94 1013.0
20260903134827 64 120 0.0 0.0 0.00 0.09 0.09 92 1013.6
20260903134703 63 122 0.0 0.0 0.00 0.07 0.07 94 1013.0
20260903134322 64 129 0.0 0.0 0.00 0.09 0.09 92 1013.6
20260903134203 63 122 0.0 0.0 0.00 0.07 0.07 94 1013.0
20260903133820 64 112 0.0 0.0 0.00 0.09 0.09 92 1013.4
20260903133702 63 122 0.0 0.0 0.00 0.07 0.07 94 1012.9
20260903133316 63 140 0.0 0.0 0.00 0.09 0.09 93 1013.4
20260903133202 63 122 0.0 0.0 0.00 0.07 0.07 94 1012.8
20260903132815 63 103 0.0 0.0 0.00 0.09 0.09 93 1013.5
20260903132703 63 122 0.0 0.0 0.00 0.07 0.07 94 1012.8
20260903132311 63 128 0.0 0.0 0.00 0.09 0.09 93 1013.4
20260903132202 63 122 0.0 0.0 0.00 0.07 0.07 94 1012.7
20260903131806 63 184 0.0 0.0 0.00 0.09 0.09 93 1013.4